GSAT0206 (GALILEO 10)

Last updated on Wed Oct 29 2025 00:02:34 GMT+0000 (Coordinated Universal Time)

1 40890U 15045B 25301.16974118 .00000007 00000+0 00000+0 0 9999 2 40890 55.0204 228.0116 0002831 15.9156 344.1144 1.70472975 63080
UTC large
Height (km)
Speed (km/s)
/
Latitude / Longitude
Inclination (degrees)
Orbital Period (minutes)
Azimuth
Elevation
Range (km)
Doppler Factor

Next 0 passes for location: London (51.5072 / 0.1276)

Sorry there are no passes over London.